Regional Weather Roundup
Issued by NWS Charleston, SC

Home | Current Version | Previous Version | Text Only | Print | Product List | Glossary On
Versions: 1 2 3 4 5 6 7 8 9 10 11 12 13 14 15 16 17 18 19 20 21 22 23 24 25 26 27 28 29 30 31 32 33 34 35 36 37 38 39 40 41 42 43 44 45 46 47 48 49 50
000
ASUS42 KCHS 252213
RWRCHS

REGIONAL WEATHER ROUNDUP
NATIONAL WEATHER SERVICE CHARLESTON SC
600 PM EDT THU AUG 25 2016

NOTE: "FAIR" INDICATES FEW OR NO CLOUDS BELOW 12,000 FEET WITH NO
SIGNIFICANT WEATHER AND/OR OBSTRUCTIONS TO VISIBILITY.

NOT ALL STATIONS ARE QUALITY CONTROLLED. USE DATA WITH CAUTION...
ESPECIALLY DEWPOINT OBSERVATIONS.

SCZ027-030-031-034>040-042>050-252300-
...SOUTHEAST SOUTH CAROLINA...

CITY           SKY/WX    TMP DP  RH WIND       PRES   REMARKS
N CHARLESTON   MOSUNNY   87  69  54 E8        30.07F HX  91
WATERFRONT PRK   N/A     86  75  69 SE9       30.06F HX  95
MOUNT PLEASANT FAIR      84  72  65 SE6       30.08F
JOHNS ISLAND   FAIR      86  73  66 E8        30.08S HX  93
PINOPOLIS        N/A     90  68  48 CALM      30.00F HX  93
MONCKS CORNER  MOCLDY    84  70  61 SE5       30.08R
SUMMERVILLE    FAIR      91  66  43 N7        30.08S HX  94
BEAUFORT MCAS  MOSUNNY   88  71  57 E9        30.07F HX  94
BEAUFORT ARPT  FAIR      88  70  55 E7        30.06F HX  92
HILTON HEAD IS SUNNY     90  72  55 E6        30.08F HX  96
WALTERBORO     CLEAR     91  55  29 CALM      30.08S
ALLENDALE      FAIR      91  64  40 VRB5      30.06S HX  93

...SOUTHERN MIDLANDS AND PEE DEE...

CITY           SKY/WX    TMP DP  RH WIND       PRES   REMARKS
GEORGETOWN     FAIR      82  70  65 E8        30.09F
KINGSTREE      FAIR      90  63  40 N3        30.07F HX  90
ORANGEBURG     MOSUNNY   90  65  43 VRB3      30.08S HX  92
BARNWELL       NOT AVBL
AIKEN          FAIR      88  64  45 CALM      30.11F
MANNING        MOCLDY    88  66  48 S3        30.08S HX  90
COLUMBIA       MOSUNNY   93  66  40 SE5       30.06F HX  96
SUMTER         SUNNY     91  67  44 E6        30.06S HX  94
FLORENCE       SUNNY     92  65  40 E7        30.08F HX  94
MYRTLE BEACH   MOSUNNY   86  66  51 SE12      30.10F
N MYRTLE BEACH SUNNY     84  70  62 SE7       30.09S

$$

GAZ063-065-086>088-099>101-113>116-118-119-134>141-150-252300-
...SOUTHEAST GEORGIA...

CITY           SKY/WX    TMP DP  RH WIND       PRES   REMARKS
SAVANNAH ARPT  MOSUNNY   89  67  47 E15       30.06F HX  92
HUNTER AAF     SUNNY     88  74  63 E10       30.04F HX  95
FORT STEWART   SUNNY     88  69  54 E8        30.03F HX  92
STATESBORO     SUNNY     92  65  41 NE5       30.07S HX  94
SYLVANIA       NOT AVBL
CLAXTON        FAIR      91  64  41 NE6       30.06F HX  92

...CSRA...CENTRAL AND FAR SOUTHEAST GEORGIA...

CITY           SKY/WX    TMP DP  RH WIND       PRES   REMARKS
THOMSON        MOSUNNY   93  72  49 MISG      30.12F HX 100
AUGUSTA-BUSH   SUNNY     92  68  45 E5        30.06F HX  96
AUGUSTA-DANIEL SUNNY     94  67  41 CALM      30.08F HX  97
SWAINSBORO     FAIR      93  63  36 NE8       30.07F HX  94
VIDALIA        SUNNY     91  66  43 NE7G16    30.06F HX  94
EASTMAN        FAIR      92  46  20 E6        30.08F
HAZLEHURST     FAIR      92  63  37 CALM      30.05S HX  93
ALMA           MOSUNNY   91  67  44 VRB3      30.04F HX  94
WAYCROSS         N/A     91  72  53 E9        30.04F HX  98
JESUP          MOCLDY    90  75  62 E7        30.06R HX 100
BAXLEY         FAIR      91  72  52 E8        30.05F HX  98
BRUNSWICK      SUNNY     86  73  66 E13G21    30.07F HX  93
SAINT SIMONS   SUNNY     86  72  62 E13       30.06F HX  92

$$

SCZ027-028-034-036>038-045-046-048>050-GAZ119-141-252300-
...LAKE AND SUPPLEMENTAL COASTAL OBSERVATIONS...

STATION/POSITION TIME  TEMP    WIND        PRES    WAVE   SWELL
                       AIR SEA DIR/SP/G            HT/PER HT/PER/DIR
                 (UTC) (F)     (DEG/KT/KT) (MB)    (FT/S) (FT/S/D)
WINYAH BAY       2045   83     130/  8     1018.0
LAKE MURRAY      2100   92     190/  3/  4 1017.9F
ACE BASIN NERRS  NOT AVBL
FORT PULASKI     2100   84 85   80/ 14/ 16 1019.0F
SAPELO ISLAND    2100   86      60/ 13     1018.0S

$$

ANZ835-935-AMZ111-154-330-350-352-354-370-450-454-472-252300-
...C-MAN AND BUOY OBSERVATIONS...

STATION/POSITION TIME  TEMP    WIND        PRES    WAVE   SWELL
                       AIR SEA DIR/SP/G            HT/PER HT/PER/DIR
                 (UTC) (F)     (DEG/KT/KT) (MB)    (FT/S) (FT/S/D)
BUOY 41004       2150   83 84   60/ 10/ 14 1018.0F   3/10   3/100/10
BUOY 41008       2150   83 85   60/ 16/ 19 1017.8F   4/ 5   2/110/11
FOLLY BEACH CMAN 2200   83     100/ 10/ 11 1018.9F
CAPERS NEARSHORE 2108   83 85  110/  8/ 12 1018.7F
FRIPP NEARSHORE  2108   83 86  100/ 12/ 16 1017.9F


STATION/POSITION TIME  TEMP    WIND        PRES    WAVE   SWELL
                       AIR SEA DIR/SP/G            HT/PER HT/PER/DIR
                 (UTC) (F)     (DEG/KT/KT) (MB)    (FT/S) (FT/S/D)
5E ST. MARYS GA  2101      84                N/A     4/ 5   2/100/11
FRYING PAN BUOY  2100   82 85   70/ 10/ 14 1018.5F
BUOY 41025       2150   81 85  100/  6/ 10 1019.0R   3/ 9   3/100/ 9
CAPE LOOKOUT NC  2200   81     120/  8/  8 1018.6F
BUOY 41002       2150   82 84   50/ 14/ 16 1017.4F   4/ 8   3/ 90/ 8
BUOY 41010       NOT AVBL
ST AUGUSTINE FL  2200   81 84   10/ 18/ 19 1017.7F


$$




USA.gov is the U.S. government's official web portal to all federal, state and local government web resources and services.